Airfield :
LOGIN :

Register | Disclaimer

   EN    FR    IT 

 










Legend :    VFR   Marginal VFR   IFR   Intensive IFR   Very Intensive IFR
Visi :
Ceiling :
>= 8 km
>= 3000ft
5 to 8 km
1000 to 3000 ft
1500m to 5 km
500 to 1000 ft
800 to 1500m
200 to 500 ft
< 800m
< 200 ft
Symbols :   Thunderstorms  Fog  Heavy snow  Heavy precipitations  Wind > 20 kt
SIGMETs :     Misc.  Thunderstorms  Icing  Turbulence  Mountain Waves  Volcanic Ashes







- Airport Elevation : 288 ft
- IATA code : BZZ


EGVN - RAF Brize Norton

CURRENT METAR :
  • 202150Z 03004KT CAVOK 14/07 Q1027 BLACKBLU NOSIG

EXPIRED METARs :
  • 202050Z 02003KT CAVOK 14/07 Q1027 BLACKBLU NOSIG
  • 201950Z 02003KT CAVOK 16/07 Q1027 BLACKBLU NOSIG

TAF TAF EGVN
Valid from the 20 at 21:00 until the 21 at 21:00 UTC


201934Z 2021/2121 03005KT CAVOK
PROB30 2103/2108 5000 HZ
No reported NOTAMs for that airfield.



MET'MAP, your aeronautical weather chart ! - Copyright ORBIFLY December 2007 - Disclaimer

ORBIFLY MET'MAP TEAM :

Programming & Development : Alexandra Zaïnal
Concept & Development : Baudouin d'Aumeries
Co-Development & Prog : Marc-Olivier Méhu
Technical & hardware support : Manuel Goepfert

Contact : metmap@orbifly.com




SOURCES & CREDITS :

   NOAA